When you browse on this site, cookies collect data to enhance your experience and personalize the content and advertising you see.
Visit our Privacy Policy to learn more. By continuing to use the site, you agree to this use of cookies and data.
  • In Hungary
  • List of Countries
  • For 7 days
  • Water Temperature
  • Weather Map
  • News
  • Weather Widgets
  • user-avatar
    Login

    Hourly Weather Esh Sheikh Dannun

    Today, 22 August, Thursday

    Time Temperature Precipitation Wind Pressure Humidity
    00:00 +24°C° 0 mm 2 mps 752 mmHg 79%
    01:00 +24°C° 0 mm 2 mps 752 mmHg 80%
    02:00 +24°C° 0 mm 2 mps 752 mmHg 82%
    03:00 +24°C° 0 mm 1 mps 752 mmHg 82%
    04:00 +24°C° 0 mm 1 mps 752 mmHg 82%
    05:00 +23°C° 0 mm 1 mps 752 mmHg 82%
    06:00 +26°C° 0 mm 1 mps 752 mmHg 73%
    07:00 +28°C° 0 mm 1 mps 752 mmHg 63%
    08:00 +30°C° 0 mm 1 mps 752 mmHg 54%
    09:00 +32°C° 0 mm 2 mps 752 mmHg 50%
    10:00 +34°C° 0 mm 2 mps 752 mmHg 45%
    11:00 +35°C° 0 mm 3 mps 752 mmHg 41%
    12:00 +35°C° 0 mm 4 mps 751 mmHg 42%
    13:00 +36°C° 0 mm 5 mps 751 mmHg 42%
    14:00 +36°C° 0 mm 5 mps 751 mmHg 43%
    15:00 +34°C° 0 mm 6 mps 750 mmHg 48%
    16:00 +33°C° 0 mm 6 mps 750 mmHg 53%
    17:00 +32°C° 0 mm 6 mps 750 mmHg 58%
    18:00 +29°C° 0 mm 5 mps 750 mmHg 66%
    19:00 +28°C° 0 mm 4 mps 750 mmHg 74%
    20:00 +26°C° 0 mm 4 mps 750 mmHg 81%
    21:00 +26°C° 0 mm 4 mps 750 mmHg 81%
    22:00 +26°C° 0 mm 4 mps 750 mmHg 81%
    23:00 +25°C° 0 mm 3 mps 750 mmHg 80%

    Tomorrow, 23 August, Friday

    Time Temperature Precipitation Wind Pressure Humidity
    00:00 +25°C° 0 mm 3 mps 750 mmHg 81%
    01:00 +25°C° 0 mm 2 mps 750 mmHg 83%
    02:00 +25°C° 0 mm 2 mps 750 mmHg 84%
    03:00 +25°C° 0 mm 1 mps 750 mmHg 83%
    04:00 +25°C° 0 mm 1 mps 750 mmHg 82%
    05:00 +25°C° 0 mm 1 mps 750 mmHg 81%
    06:00 +27°C° 0 mm 1 mps 750 mmHg 71%
    07:00 +29°C° 0 mm 1 mps 750 mmHg 61%
    08:00 +31°C° 0 mm 1 mps 750 mmHg 51%
    09:00 +34°C° 0 mm 2 mps 750 mmHg 47%
    10:00 +35°C° 0 mm 3 mps 750 mmHg 43%
    11:00 +37°C° 0 mm 4 mps 750 mmHg 40%
    12:00 +37°C° 0 mm 5 mps 750 mmHg 41%
    13:00 +37°C° 0 mm 5 mps 749 mmHg 41%
    14:00 +38°C° 0 mm 6 mps 749 mmHg 42%
    15:00 +36°C° 0 mm 6 mps 748 mmHg 45%
    16:00 +35°C° 0 mm 6 mps 748 mmHg 48%
    17:00 +34°C° 0 mm 6 mps 748 mmHg 51%
    18:00 +32°C° 0 mm 5 mps 748 mmHg 58%
    19:00 +29°C° 0 mm 5 mps 749 mmHg 66%
    20:00 +28°C° 0 mm 4 mps 749 mmHg 74%
    21:00 +27°C° 0 mm 4 mps 749 mmHg 76%
    22:00 +27°C° 0 mm 4 mps 749 mmHg 77%
    23:00 +27°C° 0 mm 3 mps 749 mmHg 79%

    Day after tomorrow, 24 August, Saturday

    Time Temperature Precipitation Wind Pressure Humidity
    00:00 +26°C° 0 mm 3 mps 749 mmHg 81%
    01:00 +26°C° 0 mm 3 mps 749 mmHg 83%
    02:00 +26°C° 0 mm 2 mps 749 mmHg 85%
    03:00 +26°C° 0 mm 2 mps 749 mmHg 83%
    04:00 +25°C° 0 mm 1 mps 749 mmHg 82%
    05:00 +25°C° 0 mm 1 mps 749 mmHg 81%
    06:00 +27°C° 0 mm 1 mps 749 mmHg 71%
    07:00 +30°C° 0 mm 1 mps 750 mmHg 61%
    08:00 +32°C° 0 mm 1 mps 750 mmHg 51%
    09:00 +34°C° 0 mm 2 mps 750 mmHg 49%
    10:00 +35°C° 0 mm 3 mps 750 mmHg 46%
    11:00 +37°C° 0 mm 4 mps 750 mmHg 43%
    12:00 +36°C° 0 mm 4 mps 750 mmHg 44%
    13:00 +36°C° 0 mm 4 mps 750 mmHg 45%
    14:00 +36°C° 0 mm 4 mps 750 mmHg 45%
    15:00 +35°C° 0 mm 4 mps 750 mmHg 48%
    16:00 +34°C° 0 mm 4 mps 750 mmHg 50%
    17:00 +34°C° 0 mm 3 mps 750 mmHg 53%
    18:00 +31°C° 0 mm 3 mps 750 mmHg 60%
    19:00 +29°C° 0 mm 2 mps 750 mmHg 68%
    20:00 +27°C° 0 mm 2 mps 750 mmHg 75%
    21:00 +27°C° 0 mm 1 mps 750 mmHg 74%
    22:00 +27°C° 0 mm 1 mps 750 mmHg 73%
    23:00 +26°C° 0 mm 1 mps 750 mmHg 71%

    25 August, Sunday

    Time Temperature Precipitation Wind Pressure Humidity
    00:00 +26°C° 0 mm 1 mps 750 mmHg 71%
    01:00 +26°C° 0 mm 1 mps 750 mmHg 72%
    02:00 +26°C° 0 mm 1 mps 750 mmHg 72%
    03:00 +25°C° 0 mm 1 mps 750 mmHg 73%
    04:00 +25°C° 0 mm 1 mps 750 mmHg 73%
    05:00 +25°C° 0 mm 1 mps 750 mmHg 74%
    06:00 +27°C° 0 mm 1 mps 751 mmHg 69%
    07:00 +29°C° 0 mm 2 mps 751 mmHg 63%
    08:00 +31°C° 0 mm 2 mps 751 mmHg 57%
    09:00 +34°C° 0 mm 3 mps 751 mmHg 53%
    10:00 +35°C° 0 mm 3 mps 751 mmHg 49%
    11:00 +36°C° 0 mm 4 mps 751 mmHg 45%
    12:00 +36°C° 0 mm 4 mps 751 mmHg 45%
    13:00 +36°C° 0 mm 4 mps 751 mmHg 46%
    14:00 +36°C° 0 mm 4 mps 750 mmHg 46%
    15:00 +35°C° 0 mm 4 mps 750 mmHg 49%
    16:00 +34°C° 0 mm 4 mps 750 mmHg 52%
    17:00 +33°C° 0 mm 4 mps 750 mmHg 55%
    18:00 +30°C° 0 mm 3 mps 750 mmHg 61%
    19:00 +29°C° 0 mm 3 mps 751 mmHg 67%
    20:00 +27°C° 0 mm 2 mps 751 mmHg 73%
    21:00 +27°C° 0 mm 2 mps 751 mmHg 71%
    22:00 +26°C° 0 mm 2 mps 751 mmHg 69%
    23:00 +26°C° 0 mm 2 mps 751 mmHg 67%

    26 August, Monday

    Time Temperature Precipitation Wind Pressure Humidity
    00:00 +26°C° 0 mm 2 mps 751 mmHg 70%
    01:00 +25°C° 0 mm 2 mps 750 mmHg 72%
    02:00 +25°C° 0 mm 1 mps 750 mmHg 75%
    03:00 +25°C° 0 mm 1 mps 750 mmHg 76%
    04:00 +24°C° 0 mm 1 mps 750 mmHg 78%
    05:00 +22°C° 0 mm 0 mps 751 mmHg 79%
    06:00 +26°C° 0 mm 1 mps 751 mmHg 71%
    07:00 +29°C° 0 mm 1 mps 751 mmHg 63%
    08:00 +31°C° 0 mm 2 mps 751 mmHg 54%
    09:00 +32°C° 0 mm 2 mps 751 mmHg 51%
    10:00 +34°C° 0 mm 3 mps 752 mmHg 48%
    11:00 +36°C° 0 mm 4 mps 752 mmHg 44%
    12:00 +36°C° 0 mm 4 mps 751 mmHg 44%
    13:00 +36°C° 0 mm 4 mps 751 mmHg 43%
    14:00 +35°C° 0 mm 4 mps 751 mmHg 43%
    15:00 +35°C° 0 mm 4 mps 751 mmHg 46%
    16:00 +34°C° 0 mm 4 mps 750 mmHg 48%
    17:00 +33°C° 0 mm 4 mps 750 mmHg 51%
    18:00 +30°C° 0 mm 3 mps 751 mmHg 58%
    19:00 +28°C° 0 mm 3 mps 751 mmHg 66%
    20:00 +26°C° 0 mm 3 mps 751 mmHg 74%
    21:00 +26°C° 0 mm 2 mps 751 mmHg 74%
    22:00 +25°C° 0 mm 2 mps 751 mmHg 75%
    23:00 +25°C° 0 mm 1 mps 751 mmHg 76%

    27 August, Tuesday

    Time Temperature Precipitation Wind Pressure Humidity
    00:00 +25°C° 0 mm 1 mps 751 mmHg 75%
    01:00 +24°C° 0 mm 1 mps 751 mmHg 74%
    02:00 +24°C° 0 mm 1 mps 751 mmHg 73%
    03:00 +24°C° 0 mm 1 mps 751 mmHg 74%
    04:00 +24°C° 0 mm 1 mps 751 mmHg 76%
    05:00 +22°C° 0 mm 0 mps 751 mmHg 78%
    06:00 +26°C° 0 mm 1 mps 751 mmHg 70%
    07:00 +28°C° 0 mm 1 mps 751 mmHg 61%
    08:00 +30°C° 0 mm 1 mps 751 mmHg 53%
    09:00 +32°C° 0 mm 2 mps 751 mmHg 50%
    10:00 +34°C° 0 mm 3 mps 751 mmHg 48%
    11:00 +35°C° 0 mm 3 mps 751 mmHg 45%
    12:00 +35°C° 0 mm 4 mps 751 mmHg 46%
    13:00 +35°C° 0 mm 4 mps 751 mmHg 46%
    14:00 +35°C° 0 mm 5 mps 750 mmHg 46%
    15:00 +34°C° 0 mm 4 mps 750 mmHg 48%
    16:00 +33°C° 0 mm 4 mps 750 mmHg 51%
    17:00 +32°C° 0 mm 4 mps 750 mmHg 54%
    18:00 +30°C° 0 mm 3 mps 750 mmHg 61%
    19:00 +28°C° 0 mm 3 mps 750 mmHg 68%
    20:00 +26°C° 0 mm 2 mps 750 mmHg 75%
    21:00 +26°C° 0 mm 2 mps 750 mmHg 76%
    22:00 +26°C° 0 mm 2 mps 750 mmHg 78%
    23:00 +25°C° 0 mm 2 mps 750 mmHg 79%
    Show more